Track HAIYANG 2A now! 10-day predictions HAIYANG 2A is classified as:
1 37781U 11043A 22230.48409667 -.00000017 00000-0 26770-4 0 9993 2 37781 99.3181 235.2634 0001593 71.2088 288.9237 13.78743844554189